Lindcove
DateTemperatureDew Point
05/02 - 08:00 PM78.0°62.0°
05/02 - 07:45 PM79.1°60.9°
05/02 - 07:30 PM80.0°55.5°
05/02 - 07:15 PM81.5°53.4°
05/02 - 07:00 PM83.4°52.4°
05/02 - 06:45 PM85.4°51.9°
05/02 - 06:30 PM86.8°50.5°
05/02 - 06:15 PM87.5°49.9°
05/02 - 06:00 PM87.9°49.9°
05/02 - 05:45 PM88.1°48.6°
05/02 - 05:30 PM88.5°48.7°
05/02 - 05:15 PM88.6°48.5°
05/02 - 05:00 PM88.6°48.5°
05/02 - 04:45 PM88.5°48.1°
05/02 - 04:30 PM88.6°48.1°
05/02 - 04:15 PM88.5°47.7°
05/02 - 04:00 PM88.4°47.7°
05/02 - 03:45 PM88.3°47.2°
05/02 - 03:30 PM88.4°46.6°
05/02 - 03:15 PM88.2°46.4°
05/02 - 03:00 PM88.2°46.5°
05/02 - 02:45 PM87.4°46.7°
05/02 - 02:30 PM87.6°46.4°
05/02 - 02:15 PM86.9°46.4°
05/02 - 02:00 PM86.8°45.4°
05/02 - 01:45 PM86.7°44.3°
05/02 - 01:30 PM86.0°46.9°
05/02 - 01:15 PM84.8°50.9°
05/02 - 01:00 PM84.6°55.6°
05/02 - 12:45 PM84.4°54.5°
05/02 - 12:30 PM83.4°55.3°
05/02 - 12:15 PM83.0°55.5°
05/02 - 12:00 PM82.1°55.8°
05/02 - 11:45 AM81.5°55.7°
05/02 - 11:30 AM80.7°55.8°
05/02 - 11:15 AM80.9°55.7°
05/02 - 11:00 AM80.7°55.4°
05/02 - 10:45 AM79.6°55.3°
05/02 - 10:30 AM78.9°55.8°
05/02 - 10:15 AM77.1°55.4°
05/02 - 10:00 AM76.4°55.8°
05/02 - 09:45 AM75.4°56.2°
05/02 - 09:30 AM73.2°56.4°
05/02 - 09:15 AM71.7°55.4°
05/02 - 09:00 AM70.3°55.9°
05/02 - 08:45 AM68.3°56.4°
05/02 - 08:30 AM67.2°56.9°
05/02 - 08:15 AM66.3°57.0°
05/02 - 08:00 AM66.5°57.3°
05/02 - 07:45 AM66.6°59.0°
05/02 - 07:30 AM64.6°59.2°
05/02 - 07:15 AM62.9°62.2°
05/02 - 07:00 AM61.3°61.3°
05/02 - 06:45 AM58.7°58.7°
05/02 - 06:30 AM57.6°57.6°
05/02 - 06:15 AM58.5°58.5°
05/02 - 06:00 AM58.1°58.1°
05/02 - 05:45 AM59.3°59.1°
05/02 - 05:30 AM59.7°59.4°
05/02 - 05:15 AM59.2°58.9°
05/02 - 05:00 AM61.0°60.6°
05/02 - 04:45 AM59.3°58.9°
05/02 - 04:30 AM59.0°58.4°
05/02 - 04:15 AM58.6°57.8°
05/02 - 04:00 AM58.6°57.5°
05/02 - 03:45 AM59.0°57.6°
05/02 - 03:30 AM58.8°57.2°
05/02 - 03:15 AM59.7°57.7°
05/02 - 03:00 AM60.5°57.9°
05/02 - 02:45 AM62.0°59.2°
05/02 - 02:30 AM62.4°60.1°
05/02 - 02:15 AM61.8°60.6°
05/02 - 02:00 AM63.6°62.7°
05/02 - 01:45 AM65.2°64.0°
05/02 - 01:30 AM64.9°63.5°
05/02 - 01:15 AM63.9°62.2°
05/02 - 01:00 AM65.1°63.3°
05/02 - 12:45 AM66.0°63.9°
05/02 - 12:30 AM66.6°64.4°
05/02 - 12:15 AM65.9°63.9°
05/02 - 12:00 AM65.0°63.0°
05/01 - 11:45 PM64.3°61.6°
05/01 - 11:30 PM64.8°61.7°
05/01 - 11:15 PM65.0°61.2°
05/01 - 11:00 PM65.3°60.9°
05/01 - 10:45 PM66.0°61.2°
05/01 - 10:30 PM65.8°62.9°
05/01 - 10:15 PM65.4°63.9°
05/01 - 10:00 PM70.3°68.4°
05/01 - 09:45 PM68.0°65.7°
05/01 - 09:30 PM69.9°66.9°
05/01 - 09:15 PM69.2°65.9°
05/01 - 09:00 PM70.5°66.8°
05/01 - 08:45 PM72.4°68.1°
05/01 - 08:30 PM75.8°70.7°
05/01 - 08:15 PM75.6°69.3°
05/01 - 08:00 PM78.3°68.9°
05/01 - 07:45 PM80.2°66.5°
05/01 - 07:30 PM81.9°64.4°
05/01 - 07:15 PM82.7°60.3°
05/01 - 07:00 PM83.7°58.5°
05/01 - 06:45 PM84.5°57.5°
05/01 - 06:30 PM84.9°56.5°
05/01 - 06:15 PM85.3°55.3°
05/01 - 06:00 PM85.8°55.0°
05/01 - 05:45 PM85.8°55.8°
05/01 - 05:30 PM86.1°55.5°
05/01 - 05:15 PM86.3°55.9°
05/01 - 05:00 PM86.3°55.8°
05/01 - 04:45 PM86.2°56.1°
05/01 - 04:30 PM86.3°55.4°
05/01 - 04:15 PM86.2°54.6°
05/01 - 04:00 PM86.1°53.6°
05/01 - 03:45 PM86.3°52.9°
05/01 - 03:30 PM85.8°53.4°
05/01 - 03:15 PM85.8°53.8°
05/01 - 03:00 PM85.6°52.4°
05/01 - 02:45 PM85.1°53.0°
05/01 - 02:30 PM84.1°52.3°
05/01 - 02:15 PM84.1°52.3°
05/01 - 02:00 PM84.1°52.7°
05/01 - 01:45 PM83.6°52.4°
05/01 - 01:30 PM83.0°54.9°
05/01 - 01:15 PM81.8°55.3°
05/01 - 01:00 PM81.9°56.5°
05/01 - 12:45 PM81.1°55.8°
05/01 - 12:30 PM80.6°55.7°
05/01 - 12:15 PM80.0°56.1°
05/01 - 12:00 PM79.3°55.9°
05/01 - 11:45 AM78.5°55.5°
05/01 - 11:30 AM78.1°55.9°
05/01 - 11:15 AM77.2°55.1°
05/01 - 11:00 AM76.5°55.3°
05/01 - 10:45 AM75.5°55.5°
05/01 - 10:30 AM74.7°55.2°
05/01 - 10:15 AM73.7°54.8°
05/01 - 10:00 AM73.1°54.8°
05/01 - 09:45 AM71.8°54.4°
05/01 - 09:30 AM70.7°54.0°
05/01 - 09:15 AM69.9°54.1°
05/01 - 09:00 AM68.5°54.1°
05/01 - 08:45 AM67.4°55.1°
05/01 - 08:30 AM66.4°55.9°
05/01 - 08:15 AM65.2°56.0°
05/01 - 08:00 AM64.0°57.1°
05/01 - 07:45 AM62.9°60.2°
05/01 - 07:30 AM61.8°61.8°
05/01 - 07:15 AM60.8°60.8°
05/01 - 07:00 AM58.8°58.8°
05/01 - 06:45 AM56.7°56.7°
05/01 - 06:30 AM56.2°56.2°
05/01 - 06:15 AM56.5°56.5°
05/01 - 06:00 AM56.7°56.7°
05/01 - 05:45 AM56.4°56.4°
05/01 - 05:30 AM57.2°57.2°
05/01 - 05:15 AM57.3°57.3°
05/01 - 05:00 AM57.0°57.0°
05/01 - 04:45 AM56.7°56.7°
05/01 - 04:30 AM56.6°56.6°
05/01 - 04:15 AM56.2°56.2°
05/01 - 04:00 AM56.4°56.4°
05/01 - 03:45 AM56.6°56.6°
05/01 - 03:30 AM58.2°58.2°
05/01 - 03:15 AM57.9°57.9°
05/01 - 03:00 AM57.2°57.2°
05/01 - 02:45 AM57.8°57.8°
05/01 - 02:30 AM58.0°58.0°
05/01 - 02:15 AM58.8°58.8°
05/01 - 02:00 AM59.1°59.1°
05/01 - 01:45 AM59.3°59.2°
05/01 - 01:30 AM59.1°58.9°
05/01 - 01:15 AM58.3°58.0°
05/01 - 01:00 AM59.2°58.8°
05/01 - 12:45 AM58.7°58.1°
05/01 - 12:30 AM59.5°58.9°
05/01 - 12:15 AM60.5°59.8°
05/01 - 12:00 AM61.2°60.4°
04/30 - 11:45 PM62.8°61.8°
04/30 - 11:30 PM64.2°63.1°
04/30 - 11:15 PM63.1°62.0°
04/30 - 11:00 PM64.2°63.0°
04/30 - 10:45 PM66.5°64.9°
04/30 - 10:30 PM68.0°66.2°
04/30 - 10:15 PM68.2°66.1°
04/30 - 10:00 PM72.4°69.8°
04/30 - 09:45 PM70.8°67.7°
04/30 - 09:30 PM70.8°66.8°
04/30 - 09:15 PM68.7°62.9°
04/30 - 09:00 PM69.9°62.0°
04/30 - 08:45 PM71.6°62.7°
04/30 - 08:30 PM70.2°61.6°